Wind_Speed
16 16 13 12 8 3 9 10 7 6 5 7 9 27 28 25 23 22 16 17 18 17 13 11 10 9 11 11 10 8 6 7 10 12 14 15 14 15 14 14 15 16 16 16 17 18 17 17 16
11 15 17 16 9 4 12 22 11 7 4 7 12 17 19 12 19 19 21 19 18 16 13 10 10 9 8 8 8 9 7 6 6 9 10 11 12 13 12 11 12 13 14 13 13 15 15 14 14
10 11 15 18 15 10 16 20 25 12 9 9 15 17 21 18 17 20 20 19 19 17 15 12 10 9 10 10 8 7 6 5 6 6 8 9 9 10 10 9 9 10 10 11 10 11 12 12 12
11 10 11 14 16 11 16 26 20 14 11 10 17 17 19 17 19 19 20 20 20 18 16 15 13 11 11 11 11 10 8 6 5 6 5 7 7 7 7 7 6 6 6 6 7 8 9 8 9
9 10 12 11 15 17 17 30 15 14 14 11 19 23 24 19 17 16 18 20 20 19 18 16 14 14 13 14 13 11 10 9 7 6 6 6 5 5 6 5 3 3 3 3 4 6 7 7 6
11 10 9 12 14 16 20 25 18 17 15 13 22 29 28 20 18 17 18 18 20 19 18 16 15 16 15 14 14 13 11 10 9 9 7 6 5 4 5 4 3 1 0 1 2 3 4 4 4
17 16 13 13 14 16 19 24 19 18 20 19 22 27 20 23 22 23 23 19 21 20 19 18 17 16 16 16 14 15 14 12 11 9 8 8 7 7 5 4 3 2 2 3 3 2 2 2 2
18 20 18 17 16 19 22 19 19 20 21 17 22 31 33 28 26 23 22 23 25 24 22 21 19 18 18 16 16 15 14 14 13 12 11 11 9 9 7 5 4 3 3 5 5 5 4 3 3
19 19 18 18 19 22 29 22 24 19 18 21 23 31 33 22 22 23 21 20 24 26 27 25 23 22 21 19 18 16 16 16 15 14 14 14 13 12 11 9 6 5 5 5 7 7 7 6 6
11 14 18 21 28 32 31 28 28 23 19 22 27 28 35 27 27 31 32 26 24 23 26 27 27 25 26 24 23 21 20 18 18 17 17 16 16 16 14 12 11 9 8 8 8 8 8 8 8
9 9 17 21 22 27 30 28 31 29 25 24 25 35 36 36 34 33 30 31 28 27 25 27 25 25 29 28 27 26 25 23 21 19 19 19 20 19 17 15 14 14 12 11 11 11 10 10 10
14 15 17 18 18 20 19 20 29 32 29 29 37 32 32 39 36 33 30 30 27 32 27 22 22 23 28 28 28 27 27 25 23 21 21 21 22 21 20 18 17 17 16 15 14 13 12 12 12
18 19 20 21 21 21 19 17 17 24 32 35 36 30 27 31 35 36 34 33 31 27 27 23 24 24 20 24 23 25 27 26 26 24 24 23 24 23 22 20 20 20 18 17 17 15 14 13 13
23 24 24 25 25 23 22 20 18 15 24 31 36 31 31 31 35 36 35 33 32 27 26 25 17 22 26 24 21 23 25 27 27 26 25 26 26 26 25 23 22 20 19 18 18 16 14 15 14
26 26 27 27 28 26 24 23 20 18 19 22 26 32 33 35 34 35 36 36 33 27 24 25 16 20 22 21 20 23 25 27 28 29 28 28 29 27 28 27 25 22 22 20 18 17 16 15 15
32 31 30 29 31 29 28 23 24 23 19 17 23 27 34 34 38 39 39 36 37 35 33 31 30 26 24 19 21 20 23 27 28 30 30 29 30 30 29 28 27 25 24 22 20 19 19 17 18
34 32 32 32 33 32 31 24 24 28 21 21 24 27 30 35 38 37 37 37 39 39 38 35 33 33 26 24 22 25 26 30 30 31 32 31 35 34 32 31 28 27 25 25 24 25 24 24 24
32 34 33 33 38 34 35 29 28 32 26 23 24 28 33 35 31 25 35 37 39 41 43 41 40 33 32 32 33 35 34 33 34 37 40 40 41 43 37 33 30 27 26 26 26 28 29 29 31
36 41 35 31 37 41 33 35 33 33 31 27 26 29 34 38 29 24 33 36 39 41 42 43 42 43 43 41 41 41 35 31 37 39 39 50 41 46 37 37 30 29 27 27 28 28 29 31 33
42 45 40 40 41 45 37 38 37 34 36 32 31 34 29 30 33 29 33 37 40 41 43 43 44 45 45 45 44 38 37 33 34 36 38 38 31 23 37 41 39 31 29 27 28 31 32 33 35
42 42 41 42 41 46 40 40 41 36 40 40 34 36 32 33 33 32 34 36 38 40 44 45 45 44 43 43 42 39 41 40 38 34 39 34 25 21 38 38 38 36 36 29 30 34 37 38 35
45 42 42 42 43 43 36 39 37 36 46 43 42 39 38 34 36 35 35 35 36 38 41 45 45 45 45 45 44 41 42 42 40 37 46 41 39 35 33 31 33 33 35 38 34 33 38 40 45
41 38 34 42 41 40 34 40 23 31 42 50 44 44 41 39 38 38 38 35 36 38 39 41 44 47 48 49 48 46 44 45 44 44 44 46 46 46 43 45 42 39 39 39 35 37 44 46 47
38 39 39 35 35 37 40 29 23 27 40 48 53 43 42 43 41 41 41 38 37 38 38 39 42 44 46 48 49 49 50 48 49 47 46 46 45 45 49 47 48 47 45 46 45 46 47 49 45
39 38 33 30 30 38 28 30 27 36 44 51 53 43 42 43 45 45 42 41 40 41 41 41 41 41 44 45 46 49 51 52 52 52 49 49 50 49 51 51 52 49 46 47 46 47 47 46 45
24 25 28 29 29 27 26 31 40 45 46 50 51 52 45 44 46 46 44 43 43 42 43 43 43 43 44 45 46 47 46 48 50 51 52 51 51 51 50 48 47 49 48 43 43 45 47 48 47
29 28 24 38 39 26 21 28 39 42 45 50 56 57 51 46 46 47 48 44 45 45 45 46 47 47 48 48 48 50 50 49 49 50 48 50 48 49 49 48 51 50 47 45 47 49 50 51 50
33 28 31 33 39 39 35 26 36 42 43 51 54 52 48 43 45 47 49 49 49 49 50 48 48 49 50 51 53 54 54 54 54 54 53 54 53 53 51 53 51 51 49 47 50 53 53 57 57
29 33 35 33 36 30 35 44 43 31 26 27 38 37 41 42 46 46 47 48 49 52 52 51 50 52 53 54 55 56 57 60 59 59 58 57 56 56 55 55 55 55 55 52 51 49 50 54 56
37 36 28 34 32 35 35 33 39 42 44 50 34 26 36 36 38 42 43 46 48 50 52 54 55 58 58 57 59 60 61 62 62 64 63 61 60 59 59 60 59 58 55 53 54 52 53 53 56
Wind_Direction
235 233 236 238 237 105 265 241 268 268 303 277 244 183 183 152 183 200 204 201 204 203 215 217 205 170 152 147 133 113 106 92 89 94 93 96 95 93 90 87 86 87 86 85 84 83 82 81 79
233 231 231 236 211 188 237 270 264 257 271 293 204 189 207 186 192 198 195 199 199 208 208 224 214 184 166 147 138 127 111 103 91 87 90 92 93 94 93 88 86 87 90 86 82 81 80 78 74
235 230 226 225 215 186 283 265 258 255 263 273 205 202 210 221 199 194 196 197 199 204 215 214 222 203 180 163 144 137 129 118 113 102 92 92 90 88 89 88 86 84 84 89 85 84 82 77 72
237 234 231 230 217 218 239 254 235 249 256 247 215 198 207 211 209 205 206 205 204 204 213 215 216 215 199 184 169 161 161 154 134 130 126 108 103 101 94 86 80 78 76 75 86 82 80 72 68
240 230 229 224 225 207 248 244 244 242 255 257 211 210 209 201 208 216 217 216 212 211 215 221 221 223 212 198 191 182 178 176 170 165 159 147 127 119 116 110 96 89 82 62 59 71 68 60 49
243 237 223 222 243 240 233 252 250 240 247 248 213 215 214 207 210 212 221 226 223 220 220 223 229 226 221 216 208 199 198 195 192 189 186 179 171 157 134 135 148 163 41 349 6 46 57 62 31
243 240 232 223 231 240 240 252 252 242 234 245 230 209 232 207 214 213 211 221 228 230 224 224 225 231 227 221 222 219 210 212 212 211 208 206 204 203 193 166 181 219 263 285 293 317 12 12 7
244 243 237 235 242 240 251 251 253 249 240 234 229 214 226 208 216 223 225 222 222 227 231 230 229 232 234 231 227 230 230 222 223 226 226 226 225 230 229 209 199 224 249 266 279 292 303 308 301
248 247 242 238 247 244 247 247 247 245 251 237 234 232 239 202 220 228 231 238 243 236 232 229 229 231 237 236 235 232 236 237 235 234 234 234 237 238 241 239 238 242 259 273 275 281 287 287 284
245 242 239 235 234 244 247 248 250 248 246 245 238 235 224 223 245 254 252 246 253 257 256 238 238 235 237 234 235 236 236 239 239 240 242 241 238 239 243 244 248 249 255 264 271 266 271 276 278
257 242 236 248 245 251 253 249 252 250 242 245 243 240 228 236 248 255 256 248 256 255 249 260 252 242 245 241 237 235 235 236 239 240 243 246 248 247 244 247 248 251 250 257 264 265 262 264 266
257 256 259 261 265 257 254 248 247 250 244 235 234 235 232 239 250 247 254 258 264 255 252 258 266 273 256 251 250 245 243 244 245 242 245 247 247 248 250 247 250 254 253 251 253 256 255 257 263
260 260 263 265 265 262 263 264 250 252 241 238 243 242 240 238 244 249 256 261 265 258 246 245 259 264 264 265 261 259 256 252 251 248 247 249 254 255 251 249 249 254 256 254 250 246 253 258 263
256 258 260 264 268 267 266 265 271 261 257 245 244 245 245 245 241 243 249 256 258 265 262 235 257 254 262 266 262 261 257 257 256 254 251 250 252 255 257 255 252 252 255 252 249 245 249 259 265
259 259 259 261 266 268 265 264 271 254 260 261 249 243 242 244 245 246 243 246 249 255 261 239 250 273 263 267 267 266 267 264 262 259 252 250 250 248 252 253 252 248 251 250 250 246 246 254 258
261 261 262 263 261 266 266 265 264 260 262 252 249 242 243 243 243 241 240 239 247 256 259 264 276 274 264 257 265 279 277 271 270 266 261 254 249 245 246 246 245 242 245 246 246 247 246 246 252
260 262 262 261 259 262 262 264 263 263 262 248 246 243 245 246 247 247 248 242 242 248 257 261 265 263 253 255 267 268 280 275 270 266 263 256 252 247 241 243 242 243 242 244 247 252 253 254 256
265 262 255 258 265 253 261 260 261 264 261 257 250 246 242 243 255 245 249 250 247 247 253 255 257 252 254 263 269 277 281 275 272 268 264 255 249 245 236 233 234 240 243 244 249 253 257 260 263
246 251 252 253 256 261 257 259 257 261 261 257 252 250 249 250 260 254 250 250 252 252 250 253 255 256 259 266 270 275 273 271 268 270 277 273 285 247 242 243 239 238 243 249 253 256 262 266 268
247 254 253 254 256 261 260 260 257 258 261 256 250 251 256 258 256 251 246 250 251 252 254 254 255 255 258 261 265 268 266 264 265 276 275 284 293 263 229 239 242 239 246 253 259 264 263 267 272
250 250 250 251 256 256 259 259 261 258 256 257 256 256 254 253 257 255 249 244 246 250 252 254 254 256 257 258 260 262 263 265 269 277 275 278 279 229 222 232 242 236 255 256 263 266 268 270 271
249 251 249 250 250 259 266 257 266 262 258 257 256 255 254 251 250 249 252 252 248 246 248 251 251 253 253 254 256 258 257 263 265 263 270 265 266 263 264 255 257 244 245 250 256 268 272 270 269
253 244 252 248 250 249 248 257 259 257 265 257 252 256 257 252 250 250 249 249 251 251 249 248 249 248 248 249 253 254 252 257 260 264 263 269 277 282 282 283 274 261 252 257 271 274 276 281 275
243 249 247 253 251 250 250 240 252 241 261 265 255 256 259 260 257 251 250 250 249 252 252 249 249 250 248 247 248 248 249 251 253 258 263 266 269 274 277 278 279 281 281 284 284 277 274 276 278
256 253 250 253 249 255 249 245 238 232 232 251 262 258 255 257 260 259 256 253 247 247 251 254 252 250 250 248 246 247 247 249 251 256 258 261 265 267 269 272 274 278 277 276 276 278 280 280 278
249 252 245 246 246 253 251 237 234 239 235 244 252 257 258 258 259 260 259 258 253 248 248 250 253 254 252 253 253 250 248 250 250 250 252 255 258 260 265 269 274 273 277 279 277 277 276 274 276
248 233 231 231 226 248 240 226 228 240 241 241 249 255 256 254 255 257 260 259 257 253 247 247 248 250 252 253 252 254 255 254 256 258 258 260 260 261 264 262 264 272 276 277 274 272 273 275 276
254 243 242 249 240 229 217 243 228 230 236 245 249 250 253 250 252 252 254 255 257 255 255 250 249 249 249 251 252 251 252 255 256 255 256 259 261 260 261 262 264 269 274 275 274 274 276 279 280
264 255 256 257 259 257 247 231 246 240 232 211 242 257 253 248 249 251 252 253 254 255 257 256 251 249 248 248 249 251 252 253 253 256 258 257 256 259 259 260 263 268 273 275 278 277 275 276 278
256 254 239 253 254 263 254 261 268 256 244 250 241 243 258 254 250 247 251 252 253 255 257 257 255 254 250 247 245 246 249 251 252 253 254 257 258 257 257 256 260 265 269 271 274 276 277 279 281
Height
5911 5912 5913 5915 5921 5923 5926 5921 5920 5917 5917 5916 5915 5916 5916 5907 5917 5921 5924 5926 5928 5929 5931 5932 5933 5933 5932 5932 5933 5934 5935 5935 5934 5932 5931 5930 5930 5929 5929 5929 5929 5929 5928 5927 5927 5927 5927 5927 5926
5909 5910 5912 5913 5918 5927 5924 5919 5919 5917 5917 5916 5915 5917 5916 5914 5916 5919 5922 5925 5927 5928 5930 5932 5933 5933 5934 5933 5933 5934 5935 5935 5935 5934 5934 5933 5933 5932 5931 5930 5930 5930 5930 5929 5929 5929 5929 5929 5929
5908 5908 5909 5911 5915 5924 5915 5915 5915 5917 5916 5916 5916 5916 5915 5914 5916 5918 5921 5924 5925 5927 5928 5930 5932 5932 5933 5933 5933 5934 5935 5935 5935 5935 5935 5935 5934 5934 5933 5932 5931 5930 5931 5931 5931 5931 5930 5930 5930
5906 5907 5908 5909 5912 5921 5921 5912 5914 5915 5915 5915 5915 5917 5915 5916 5917 5919 5921 5923 5924 5925 5927 5929 5930 5931 5932 5933 5932 5932 5933 5934 5934 5934 5935 5935 5934 5934 5934 5933 5932 5932 5932 5932 5932 5932 5932 5931 5931
5903 5904 5906 5907 5909 5914 5915 5910 5912 5913 5913 5914 5914 5914 5913 5915 5917 5920 5921 5922 5923 5924 5925 5927 5929 5930 5931 5931 5932 5931 5932 5933 5933 5933 5934 5934 5934 5934 5934 5933 5932 5932 5932 5932 5932 5933 5933 5932 5932
5901 5902 5904 5906 5909 5910 5912 5906 5909 5911 5912 5911 5911 5912 5911 5914 5916 5918 5920 5921 5922 5923 5924 5926 5927 5928 5929 5930 5931 5930 5931 5932 5932 5932 5932 5933 5934 5934 5934 5934 5933 5932 5932 5932 5932 5933 5933 5933 5932
5897 5899 5901 5902 5908 5910 5908 5904 5906 5908 5909 5908 5910 5912 5906 5912 5913 5915 5917 5919 5921 5922 5922 5924 5925 5927 5928 5929 5930 5930 5930 5931 5932 5932 5932 5932 5932 5932 5934 5934 5933 5932 5931 5931 5930 5931 5932 5932 5931
5893 5894 5897 5899 5902 5903 5902 5902 5903 5904 5906 5907 5909 5906 5902 5908 5910 5913 5916 5917 5917 5918 5920 5922 5923 5924 5926 5927 5927 5929 5930 5929 5930 5931 5931 5930 5931 5932 5932 5933 5933 5932 5931 5930 5930 5929 5930 5931 5930
5889 5891 5893 5896 5897 5898 5898 5899 5899 5901 5903 5905 5905 5906 5898 5908 5906 5911 5914 5916 5917 5917 5918 5918 5919 5921 5923 5924 5925 5926 5927 5928 5929 5929 5929 5929 5929 5930 5930 5931 5932 5931 5931 5930 5930 5929 5928 5929 5929
5885 5886 5888 5890 5889 5888 5892 5894 5895 5898 5900 5901 5902 5901 5902 5903 5907 5910 5912 5914 5915 5916 5918 5916 5917 5917 5918 5920 5922 5923 5924 5925 5926 5927 5927 5927 5927 5927 5927 5928 5928 5929 5929 5929 5929 5928 5928 5927 5927
5883 5883 5882 5882 5884 5884 5887 5891 5890 5892 5896 5898 5900 5896 5899 5901 5904 5906 5908 5909 5912 5913 5915 5915 5916 5913 5915 5916 5916 5918 5919 5921 5923 5924 5925 5925 5925 5925 5925 5925 5925 5926 5926 5926 5926 5926 5926 5925 5924
5880 5880 5879 5879 5879 5880 5881 5884 5885 5885 5890 5892 5890 5892 5898 5899 5900 5903 5904 5905 5908 5908 5910 5910 5912 5912 5913 5913 5915 5915 5916 5918 5919 5921 5922 5922 5922 5922 5922 5923 5923 5923 5924 5924 5923 5923 5923 5923 5922
5876 5876 5875 5875 5875 5876 5877 5878 5881 5880 5880 5882 5884 5888 5892 5894 5895 5897 5899 5901 5902 5904 5904 5906 5907 5908 5909 5910 5911 5912 5913 5914 5916 5918 5918 5919 5919 5920 5919 5919 5920 5921 5921 5922 5921 5920 5920 5920 5920
5870 5870 5871 5871 5871 5871 5873 5873 5875 5878 5876 5876 5878 5882 5885 5888 5889 5890 5893 5896 5898 5898 5900 5901 5903 5904 5906 5906 5908 5908 5910 5910 5912 5914 5915 5915 5916 5917 5917 5917 5917 5918 5918 5918 5918 5917 5917 5917 5917
5864 5865 5865 5866 5866 5867 5868 5869 5870 5872 5872 5872 5874 5876 5879 5881 5883 5883 5885 5888 5891 5894 5895 5896 5897 5902 5902 5903 5904 5905 5906 5906 5907 5908 5910 5911 5911 5913 5913 5914 5914 5914 5915 5915 5915 5914 5914 5914 5914
5858 5859 5859 5860 5860 5861 5862 5865 5865 5865 5867 5869 5869 5871 5871 5874 5875 5873 5876 5881 5884 5886 5890 5891 5893 5896 5897 5898 5899 5900 5901 5902 5903 5904 5906 5907 5907 5907 5907 5908 5909 5909 5910 5912 5912 5912 5911 5910 5911
5850 5852 5852 5853 5854 5854 5857 5859 5859 5858 5862 5863 5864 5866 5867 5866 5864 5869 5871 5874 5877 5880 5883 5886 5888 5891 5892 5893 5893 5894 5896 5897 5898 5899 5900 5902 5901 5902 5902 5903 5904 5905 5906 5907 5908 5908 5907 5906 5906
5844 5843 5846 5847 5845 5849 5850 5853 5853 5852 5855 5857 5859 5860 5861 5860 5855 5862 5864 5867 5870 5873 5875 5878 5882 5884 5885 5886 5886 5888 5890 5892 5892 5892 5893 5893 5894 5894 5894 5895 5897 5899 5902 5902 5903 5902 5902 5903 5902
5835 5834 5838 5839 5839 5839 5844 5845 5847 5846 5847 5850 5851 5852 5853 5851 5851 5856 5858 5860 5862 5865 5868 5870 5873 5875 5877 5879 5880 5881 5883 5885 5884 5884 5884 5884 5886 5887 5892 5893 5893 5893 5895 5897 5897 5897 5897 5897 5896
5824 5825 5830 5831 5830 5830 5835 5836 5839 5840 5840 5841 5843 5843 5845 5846 5845 5850 5851 5852 5853 5856 5859 5862 5865 5868 5870 5872 5873 5875 5875 5877 5877 5877 5877 5877 5875 5873 5880 5883 5886 5887 5889 5890 5891 5891 5891 5891 5892
5814 5817 5820 5822 5821 5822 5826 5828 5829 5832 5830 5831 5834 5835 5838 5838 5839 5841 5842 5843 5845 5848 5850 5853 5856 5859 5862 5864 5866 5867 5867 5869 5870 5871 5868 5871 5872 5871 5873 5877 5878 5883 5883 5886 5884 5885 5885 5885 5885
5803 5807 5809 5811 5813 5814 5816 5820 5820 5820 5819 5822 5824 5826 5828 5832 5831 5833 5833 5835 5837 5839 5841 5843 5847 5849 5852 5855 5857 5860 5861 5860 5861 5865 5861 5863 5867 5869 5869 5873 5872 5874 5875 5876 5878 5879 5879 5879 5877
5793 5797 5797 5800 5802 5805 5810 5810 5819 5812 5808 5808 5815 5817 5819 5820 5822 5824 5825 5829 5829 5830 5832 5835 5837 5839 5842 5845 5848 5850 5853 5852 5853 5854 5855 5856 5857 5856 5860 5860 5863 5867 5866 5868 5870 5872 5871 5872 5870
5782 5785 5789 5788 5793 5793 5801 5805 5809 5811 5802 5796 5800 5806 5808 5809 5811 5814 5815 5819 5821 5822 5823 5825 5827 5829 5831 5834 5836 5839 5841 5844 5844 5845 5847 5848 5849 5850 5849 5853 5853 5855 5858 5860 5863 5862 5863 5862 5863
5774 5777 5781 5783 5785 5785 5794 5796 5803 5795 5794 5786 5788 5796 5798 5798 5798 5801 5805 5807 5811 5812 5813 5815 5817 5818 5821 5823 5825 5827 5830 5832 5834 5835 5838 5839 5839 5841 5843 5844 5843 5846 5847 5848 5849 5849 5850 5852 5852
5769 5770 5774 5777 5781 5785 5786 5784 5785 5781 5784 5782 5779 5782 5788 5788 5788 5789 5793 5795 5799 5802 5803 5805 5806 5807 5809 5811 5814 5816 5818 5821 5822 5824 5826 5828 5829 5831 5832 5835 5835 5834 5835 5838 5839 5838 5840 5841 5841
5759 5758 5764 5759 5765 5769 5774 5771 5769 5772 5774 5776 5773 5772 5776 5778 5778 5779 5780 5782 5784 5788 5791 5793 5795 5796 5798 5799 5802 5804 5806 5808 5810 5812 5815 5815 5818 5818 5820 5823 5823 5824 5827 5828 5829 5828 5829 5828 5830
5747 5752 5752 5754 5754 5756 5761 5761 5758 5756 5760 5760 5759 5761 5762 5767 5767 5768 5768 5771 5771 5774 5776 5782 5784 5785 5787 5788 5789 5791 5793 5796 5798 5800 5803 5804 5806 5808 5810 5811 5814 5815 5817 5818 5817 5817 5818 5817 5819
5739 5741 5742 5745 5743 5748 5750 5752 5742 5748 5753 5737 5743 5751 5753 5754 5754 5756 5758 5759 5759 5761 5763 5767 5770 5771 5774 5776 5778 5779 5781 5782 5785 5787 5790 5792 5796 5797 5799 5800 5802 5803 5804 5805 5805 5806 5808 5809 5809
5731 5733 5732 5733 5738 5738 5740 5744 5734 5738 5739 5736 5736 5737 5742 5742 5743 5743 5745 5746 5748 5748 5750 5751 5754 5755 5759 5761 5763 5766 5768 5769 5771 5773 5775 5778 5781 5785 5785 5789 5790 5792 5792 5793 5793 5796 5796 5797 5797